Preview of NWS' New Version of Forecast
This preview is not operational and should not be used for support decisions.

Regional Weather Roundup (RWR)

Issued by National Weather Service (NWS)

                            
000
ASUS43 KTOP 202359
RWRKS 

WEATHER ROUNDUP FOR KANSAS
NATIONAL WEATHER SERVICE GOODLAND KS
700 PM CDT TUE AUG 20 2019

NOTE:  "FAIR" INDICATES FEW OR NO CLOUDS BELOW 12,000 FEET WITH NO
SIGNIFICANT WEATHER AND/OR OBSTRUCTIONS TO VISIBILITY.

KSZ001>006-013>018-027>032-041>047-210100-
NORTHWEST KANSAS
  
CITY           SKY/WX    TMP DP  RH WIND       PRES   REMARKS
GOODLAND       SUNNY     90  67  46 NE7       29.96S                  
6HR MIN TEMP:  90; 6HR MAX TEMP:  99;                                

HAYS           SUNNY     94  68  42 E17       29.81F THUNDER HX  98   
HILL CITY      SUNNY     92  72  51 E12       29.90F HX  99           
6HR MIN TEMP:  92; 6HR MAX TEMP: 101;                                

RUSSELL        SUNNY     92  75  57 E10       29.88F HX 103           
6HR MIN TEMP:  90; 6HR MAX TEMP: 100;                                

$$

KSZ061>065-074>080-084>089-210100-
SOUTHWEST KANSAS
  
CITY           SKY/WX    TMP DP  RH WIND       PRES   REMARKS
DODGE CITY     MOSUNNY   86  61  42 SE22G29   29.98R                  
6HR MIN TEMP:  85; 6HR MAX TEMP: 104;                                

GARDEN CITY    SUNNY     96  53  23 S22G30    29.94S                  
6HR MIN TEMP:  96; 6HR MAX TEMP: 103;                                

GREAT BEND     SUNNY     90  69  50 SW24G33   29.91R                  
LIBERAL        SUNNY     95  55  26 S22G30    29.98R                  
$$

KSZ066>073-081>083-090>101-210100-
SOUTHEAST KANSAS
  
CITY           SKY/WX    TMP DP  RH WIND       PRES   REMARKS
CHANUTE        SUNNY     92  77  61 S9        29.96F HX 105           
6HR MIN TEMP:  92; 6HR MAX TEMP:  97;                                

COFFEYVILLE    SUNNY     91  78  65 SE7       29.94S HX 106           
6HR MIN TEMP:  91; 6HR MAX TEMP:  94;                                

HUTCHINSON     SUNNY     94  69  44 SE8       29.90S HX  99           
6HR MIN TEMP:  94; 6HR MAX TEMP: 102;                                

MEDICINE LODGE   N/A     94  66  39 SW7       29.90S HX  97           
NEWTON           N/A     90  76  63 SE15      29.94S HX 101           
PARSONS        SUNNY     91  79  67 S5        29.97S HX 107           
6HR MIN TEMP:  91; 6HR MAX TEMP:  95;                                

WICHITA INTL   MOSUNNY   96  70  42 SE15      29.91R HX 102           
6HR MIN TEMP:  96; 6HR MAX TEMP: 104;                                

WICHITA JABRA  SUNNY     93  74  53 SE12G20   29.92S HX 103           
6HR MIN TEMP:  93; 6HR MAX TEMP:  97;                                

WICHITA MCCONL SUNNY     95  71  45 E20       29.92S HX 101           
WINFIELD       SUNNY     92  76  59 SE9       29.95R HX 104           
6HR MIN TEMP:  92; 6HR MAX TEMP:  97;                                

$$

KSZ007>012-019>026-033>040-048>060-102>105-210100-
NORTHEAST KANSAS
  
CITY           SKY/WX    TMP DP  RH WIND       PRES   REMARKS
CONCORDIA      SUNNY     91  81  72 E3        29.90F HX 111           
6HR MIN TEMP:  91; 6HR MAX TEMP:  96;                                

EMPORIA        SUNNY     90  77  65 S13G20    29.93F HX 103           
6HR MIN TEMP:  90; 6HR MAX TEMP:  96;                                

LAWRENCE       SUNNY     91  77  63 S12       29.91F HX 104           
6HR MIN TEMP:  89; 6HR MAX TEMP:  95;                                

MANHATTAN      SUNNY     93  79  63 SE7       29.89F HX 110           
6HR MIN TEMP:  92; 6HR MAX TEMP:  97;                                

OLATHE IND     SUNNY     88  77  69 S14       29.94F HX 100           
6HR MIN TEMP:  88; 6HR MAX TEMP:  92;                                

OLATHE EXE     SUNNY     87  77  72 S13       29.94F HX  99           
6HR MIN TEMP:  85; 6HR MAX TEMP:  91;                                

SALINA         SUNNY     95  75  52 SE12      29.89F HX 107           
6HR MIN TEMP:  95; 6HR MAX TEMP:  99;                                

TOPEKA BILLARD SUNNY     90  78  68 S14G22    29.90F HX 104           
6HR MIN TEMP:  87; 6HR MAX TEMP:  92;                                

TOPEKA FORBES  SUNNY     92  79  65 SE12      29.92F HX 108           
6HR MIN TEMP:  90; 6HR MAX TEMP:  95;                                

$$